• In Hungary
  • List of Countries
  • For 7 days
  • Water Temperature
  • Satellite Maps
  • Weather Map
  • News
  • Weather Widgets
  • user-avatar
    Login

    Hourly Weather Rechnoy

    Today, 16 August, Thursday

    Time Temperature Precipitation Wind Pressure Humidity
    00:00 +16°C° 0 mm 3 mps 735 mmHg 73%
    01:00 +15°C° 0 mm 4 mps 735 mmHg 75%
    02:00 +14°C° 0 mm 3 mps 735 mmHg 78%
    03:00 +14°C° 0 mm 3 mps 735 mmHg 80%
    04:00 +13°C° 0 mm 3 mps 735 mmHg 82%
    05:00 +14°C° 0 mm 4 mps 736 mmHg 79%
    06:00 +15°C° 0 mm 4 mps 736 mmHg 75%
    07:00 +17°C° 0 mm 4 mps 736 mmHg 72%
    08:00 +18°C° 0 mm 4 mps 736 mmHg 64%
    09:00 +20°C° 0 mm 4 mps 736 mmHg 56%
    10:00 +22°C° 0 mm 4 mps 736 mmHg 49%
    11:00 +23°C° 0 mm 4 mps 736 mmHg 46%
    12:00 +25°C° 0 mm 4 mps 736 mmHg 43%
    13:00 +26°C° 0 mm 4 mps 736 mmHg 40%
    14:00 +26°C° 0 mm 4 mps 736 mmHg 39%
    15:00 +26°C° 0 mm 4 mps 736 mmHg 38%
    16:00 +27°C° 0 mm 4 mps 736 mmHg 38%
    17:00 +26°C° 0 mm 4 mps 736 mmHg 43%
    18:00 +24°C° 0 mm 3 mps 736 mmHg 48%
    19:00 +23°C° 0 mm 2 mps 736 mmHg 53%
    20:00 +21°C° 0 mm 3 mps 736 mmHg 57%
    21:00 +21°C° 0 mm 3 mps 736 mmHg 61%
    22:00 +20°C° 0 mm 3 mps 736 mmHg 65%
    23:00 +19°C° 0 mm 3 mps 736 mmHg 66%

    Tomorrow, 17 August, Friday

    Time Temperature Precipitation Wind Pressure Humidity
    00:00 +19°C° 0 mm 3 mps 735 mmHg 67%
    01:00 +19°C° 0 mm 2 mps 735 mmHg 69%
    02:00 +18°C° 0 mm 3 mps 735 mmHg 68%
    03:00 +18°C° 0 mm 3 mps 735 mmHg 68%
    04:00 +18°C° 0 mm 3 mps 735 mmHg 67%
    05:00 +19°C° 0 mm 3 mps 735 mmHg 63%
    06:00 +19°C° 0 mm 4 mps 735 mmHg 60%
    07:00 +20°C° 0 mm 4 mps 735 mmHg 56%
    08:00 +22°C° 0 mm 5 mps 735 mmHg 50%
    09:00 +25°C° 0 mm 5 mps 735 mmHg 44%
    10:00 +27°C° 0 mm 5 mps 735 mmHg 38%
    11:00 +28°C° 0 mm 6 mps 734 mmHg 36%
    12:00 +29°C° 0 mm 6 mps 734 mmHg 34%
    13:00 +30°C° 0 mm 6 mps 734 mmHg 32%
    14:00 +30°C° 0 mm 6 mps 734 mmHg 33%
    15:00 +30°C° 0 mm 6 mps 733 mmHg 33%
    16:00 +30°C° 0 mm 6 mps 733 mmHg 33%
    17:00 +28°C° 0.1 mm 5 mps 733 mmHg 40%
    18:00 +27°C° 0.1 mm 4 mps 733 mmHg 46%
    19:00 +25°C° 0.1 mm 3 mps 733 mmHg 52%
    20:00 +23°C° 0.3 mm 4 mps 733 mmHg 61%
    21:00 +21°C° 0.3 mm 4 mps 733 mmHg 69%
    22:00 +19°C° 0.3 mm 4 mps 733 mmHg 78%
    23:00 +19°C° 0.2 mm 4 mps 733 mmHg 79%

    Day after tomorrow, 18 August, Saturday

    Time Temperature Precipitation Wind Pressure Humidity
    00:00 +18°C° 0.2 mm 4 mps 733 mmHg 81%
    01:00 +16°C° 0.2 mm 5 mps 733 mmHg 82%
    02:00 +16°C° 0.3 mm 5 mps 733 mmHg 82%
    03:00 +15°C° 0.3 mm 5 mps 733 mmHg 82%
    04:00 +15°C° 0.3 mm 5 mps 733 mmHg 82%
    05:00 +15°C° 0.2 mm 5 mps 733 mmHg 81%
    06:00 +15°C° 0.2 mm 5 mps 733 mmHg 81%
    07:00 +15°C° 0.2 mm 5 mps 733 mmHg 81%
    08:00 +15°C° 0.1 mm 5 mps 733 mmHg 76%
    09:00 +16°C° 0.1 mm 5 mps 733 mmHg 71%
    10:00 +17°C° 0.1 mm 5 mps 734 mmHg 66%
    11:00 +19°C° 0 mm 5 mps 733 mmHg 59%
    12:00 +20°C° 0 mm 5 mps 733 mmHg 52%
    13:00 +21°C° 0 mm 5 mps 733 mmHg 45%
    14:00 +21°C° 0 mm 5 mps 733 mmHg 43%
    15:00 +22°C° 0 mm 5 mps 733 mmHg 41%
    16:00 +22°C° 0 mm 5 mps 733 mmHg 39%
    17:00 +21°C° 0 mm 4 mps 733 mmHg 42%
    18:00 +20°C° 0 mm 4 mps 733 mmHg 46%
    19:00 +19°C° 0 mm 3 mps 733 mmHg 49%
    20:00 +18°C° 0 mm 3 mps 733 mmHg 51%
    21:00 +17°C° 0 mm 3 mps 733 mmHg 54%
    22:00 +16°C° 0 mm 3 mps 733 mmHg 57%
    23:00 +16°C° 0 mm 3 mps 733 mmHg 59%

    19 August, Sunday

    Time Temperature Precipitation Wind Pressure Humidity
    00:00 +14°C° 0 mm 3 mps 733 mmHg 62%
    01:00 +13°C° 0 mm 4 mps 733 mmHg 64%
    02:00 +13°C° 0 mm 4 mps 733 mmHg 67%
    03:00 +13°C° 0 mm 4 mps 733 mmHg 69%
    04:00 +12°C° 0 mm 4 mps 733 mmHg 71%
    05:00 +12°C° 0 mm 5 mps 733 mmHg 71%
    06:00 +13°C° 0 mm 6 mps 733 mmHg 72%
    07:00 +13°C° 0 mm 6 mps 734 mmHg 72%
    08:00 +14°C° 0 mm 7 mps 734 mmHg 67%
    09:00 +16°C° 0 mm 7 mps 734 mmHg 61%
    10:00 +17°C° 0 mm 8 mps 733 mmHg 56%
    11:00 +18°C° 0.1 mm 8 mps 733 mmHg 53%
    12:00 +18°C° 0.1 mm 8 mps 733 mmHg 49%
    13:00 +20°C° 0.1 mm 8 mps 733 mmHg 46%
    14:00 +20°C° 0 mm 8 mps 733 mmHg 46%
    15:00 +18°C° 0 mm 8 mps 733 mmHg 47%
    16:00 +18°C° 0 mm 8 mps 733 mmHg 47%
    17:00 +17°C° 0 mm 7 mps 733 mmHg 53%
    18:00 +16°C° 0 mm 7 mps 733 mmHg 58%
    19:00 +14°C° 0 mm 7 mps 733 mmHg 64%
    20:00 +12°C° 0 mm 7 mps 733 mmHg 67%
    21:00 +13°C° 0 mm 6 mps 734 mmHg 69%
    22:00 +11°C° 0 mm 6 mps 734 mmHg 71%
    23:00 +11°C° 0 mm 6 mps 734 mmHg 73%

    20 August, Monday

    Time Temperature Precipitation Wind Pressure Humidity
    00:00 +10°C° 0 mm 6 mps 734 mmHg 74%
    01:00 +10°C° 0 mm 6 mps 734 mmHg 76%
    02:00 +10°C° 0 mm 6 mps 734 mmHg 77%
    03:00 +9°C° 0 mm 6 mps 734 mmHg 78%
    04:00 +9°C° 0 mm 7 mps 734 mmHg 80%
    05:00 +9°C° 0 mm 7 mps 734 mmHg 78%
    06:00 +10°C° 0 mm 7 mps 734 mmHg 76%
    07:00 +10°C° 0 mm 8 mps 734 mmHg 75%
    08:00 +11°C° 0 mm 8 mps 734 mmHg 72%
    09:00 +11°C° 0 mm 8 mps 734 mmHg 70%
    10:00 +12°C° 0 mm 8 mps 734 mmHg 68%
    11:00 +14°C° 0 mm 7 mps 734 mmHg 63%
    12:00 +15°C° 0 mm 7 mps 734 mmHg 58%
    13:00 +17°C° 0 mm 7 mps 734 mmHg 53%
    14:00 +17°C° 0 mm 7 mps 734 mmHg 52%
    15:00 +17°C° 0 mm 7 mps 734 mmHg 51%
    16:00 +17°C° 0 mm 7 mps 734 mmHg 50%
    17:00 +17°C° 0 mm 6 mps 734 mmHg 53%
    18:00 +16°C° 0 mm 5 mps 734 mmHg 55%
    19:00 +15°C° 0 mm 4 mps 734 mmHg 58%
    20:00 +14°C° 0 mm 4 mps 735 mmHg 62%
    21:00 +14°C° 0 mm 3 mps 735 mmHg 65%
    22:00 +13°C° 0 mm 3 mps 735 mmHg 69%
    23:00 +12°C° 0 mm 3 mps 735 mmHg 70%

    21 August, Tuesday

    Time Temperature Precipitation Wind Pressure Humidity
    00:00 +12°C° 0 mm 3 mps 735 mmHg 72%
    01:00 +12°C° 0 mm 3 mps 735 mmHg 74%
    02:00 +11°C° 0 mm 4 mps 735 mmHg 75%
    03:00 +11°C° 0 mm 4 mps 735 mmHg 76%
    04:00 +11°C° 0 mm 4 mps 735 mmHg 77%
    05:00 +11°C° 0 mm 4 mps 736 mmHg 73%
    06:00 +12°C° 0 mm 4 mps 736 mmHg 70%
    07:00 +13°C° 0 mm 5 mps 736 mmHg 66%
    08:00 +15°C° 0 mm 5 mps 736 mmHg 59%
    09:00 +17°C° 0 mm 5 mps 736 mmHg 53%
    10:00 +20°C° 0 mm 6 mps 736 mmHg 46%
    11:00 +21°C° 0 mm 6 mps 736 mmHg 43%
    12:00 +22°C° 0 mm 6 mps 736 mmHg 41%
    13:00 +23°C° 0 mm 6 mps 736 mmHg 39%
    14:00 +23°C° 0 mm 6 mps 736 mmHg 39%
    15:00 +23°C° 0 mm 6 mps 736 mmHg 40%
    16:00 +24°C° 0 mm 6 mps 736 mmHg 41%
    17:00 +23°C° 0 mm 5 mps 736 mmHg 45%
    18:00 +22°C° 0 mm 4 mps 736 mmHg 49%
    19:00 +21°C° 0 mm 3 mps 736 mmHg 53%
    20:00 +20°C° 0 mm 3 mps 736 mmHg 57%
    21:00 +19°C° 0 mm 4 mps 736 mmHg 61%
    22:00 +18°C° 0 mm 4 mps 737 mmHg 65%
    23:00 +17°C° 0 mm 4 mps 737 mmHg 69%
    Show more